This demonstration page uses our WeatherBlox Daily Observations layout. Learn more.

Hourly Observations for April 30, 2018

Temp ( °F °C ) Dew Point ( °F °C ) Humidity (%) Winds ( mph kmh ) Pressure ( in mb ) Visibility ( mi km ) Precip ( " mm )
12:15 am 00:15 Clear 67 19.3 47 8.6 50 50 SSE 25 41 29.71 1006 10 16.0934 0 0
12:35 am 00:35 Clear 67 19.2 48 8.8 51 51 SSE 29 46 29.71 1006 10 16.0934 0 0
12:55 am 00:55 Clear 66 19 48 8.9 52 52 S 25 41 29.71 1006 10 16.0934 0 0
1:15 am 01:15 Clear 66 19 48 9 52 52 S 24 39 29.71 1006 10 16.0934 0 0
1:35 am 01:35 Clear 66 18.8 48 9 53 53 S 24 39 29.71 1006 10 16.0934 0 0
1:55 am 01:55 Clear 65 18.5 49 9.2 55 55 S 24 39 29.71 1006 10 16.0934 0 0
2:15 am 02:15 Clear 65 18.2 49 9.2 56 56 S 21 33 29.71 1006 10 16.0934 0 0
2:35 am 02:35 Clear 65 18.1 49 9.3 57 57 S 20 31 29.71 1006 10 16.0934 0 0
2:55 am 02:55 Clear 64 18 49 9.2 57 57 S 20 31 29.68 1005 10 16.0934 0 0
3:15 am 03:15 Clear 64 18 49 9.3 57 57 S 20 31 29.68 1005 10 16.0934 0 0
3:35 am 03:35 Clear 65 18.1 49 9.5 57 57 S 20 31 29.68 1005 10 16.0934 0 0
3:55 am 03:55 Clear 65 18.2 49 9.3 56 56 S 24 39 29.68 1005 10 16.0934 0 0
4:15 am 04:15 Clear 64 18 49 9.2 57 57 S 25 41 29.68 1005 10 16.0934 0 0
4:35 am 04:35 Clear 64 17.6 48 9.1 58 58 S 23 37 29.65 1004 10 16.0934 0 0
4:55 am 04:55 Clear 63 17.4 48 9 58 58 S 22 35 29.65 1004 10 16.0934 0 0
5:15 am 05:15 Clear 63 17.2 48 9 59 59 S 20 31 29.65 1004 10 16.0934 0 0
5:35 am 05:35 Clear 63 17 48 8.9 59 59 S 22 35 29.65 1004 10 16.0934 0 0
5:55 am 05:55 Clear 62 16.7 48 8.8 60 60 S 20 31 29.68 1005 10 16.0934 0 0
6:15 am 06:15 Clear 62 16.7 48 8.7 59 59 S 18 30 29.68 1005 10 16.0934 0 0
6:35 am 06:35 Clear 62 16.6 47 8.6 59 59 S 22 35 29.68 1005 10 16.0934 0 0
6:55 am 06:55 Sunny 62 16.5 47 8.6 60 60 S 22 35 29.68 1005 10 16.0934 0 0
7:15 am 07:15 Sunny 62 16.5 47 8.5 59 59 S 20 31 29.71 1006 10 16.0934 0 0
7:35 am 07:35 Sunny 62 16.5 47 8.6 60 60 S 20 31 29.71 1006 10 16.0934 0 0
7:55 am 07:55 Sunny 62 16.5 47 8.5 59 59 S 23 37 29.68 1005 10 16.0934 0 0
8:15 am 08:15 Sunny 62 16.5 47 8.5 59 59 S 25 41 29.68 1005 10 16.0934 0 0
8:35 am 08:35 Sunny 64 17.8 48 8.7 55 55 S 25 41 29.65 1004 10 16.0934 0 0
8:55 am 08:55 Sunny 66 18.7 48 8.8 53 53 S 32 52 29.65 1004 10 16.0934 0 0
9:15 am 09:15 Sunny 67 19.5 48 9 51 51 S 31 50 29.65 1004 10 16.0934 0 0
9:35 am 09:35 Sunny 67 19.6 48 8.9 50 50 S 24 39 29.65 1004 10 16.0934 0 0
9:55 am 09:55 Sunny 68 20.2 48 9 49 49 S 30 48 29.65 1004 10 16.0934 0 0
10:15 am 10:15 Sunny 69 20.8 48 9.1 47 47 S 28 44 29.62 1003 10 16.0934 0 0
10:35 am 10:35 Sunny 71 21.7 49 9.2 45 45 S 30 48 29.62 1003 10 16.0934 0 0
10:55 am 10:55 Sunny 72 22.2 49 9.3 44 44 S 33 54 29.62 1003 10 16.0934 0 0
11:15 am 11:15 Sunny 73 22.8 49 9.2 42 42 S 30 48 29.59 1002 10 16.0934 0 0
11:35 am 11:35 Sunny 74 23.1 49 9.3 42 42 S 29 46 29.59 1002 10 16.0934 0 0
11:55 am 11:55 Sunny 76 24.2 49 9.6 40 40 S 33 54 29.56 1001 10 16.0934 0 0
12:15 pm 12:15 Sunny 75 24 50 9.8 41 41 S 30 48 29.56 1001 10 16.0934 0 0
12:35 pm 12:35 Sunny 76 24.6 50 10.2 40 40 S 24 39 29.56 1001 10 16.0934 0 0
12:55 pm 12:55 Sunny 77 25.1 51 10.3 39 39 S 25 41 29.56 1001 10 16.0934 0 0
1:15 pm 13:15 Sunny 78 25.7 50 10.1 37 37 SSW 31 50 29.56 1001 10 16.0934 0 0
1:35 pm 13:35 Sunny 78 25.3 50 10.2 39 39 SSW 24 39 29.56 1001 10 16.0934 0 0
1:55 pm 13:55 Sunny 79 26.1 51 10.8 38 38 S 26 43 29.56 1001 10 16.0934 0 0
2:15 pm 14:15 Sunny 81 27 52 10.9 37 37 S 32 52 29.53 1000 10 16.0934 0 0
2:35 pm 14:35 Sunny 81 27.4 52 11.1 36 36 S 28 44 29.5 999 10 16.0934 0 0
2:55 pm 14:55 Sunny 81 27 52 11.1 37 37 S 32 52 29.53 1000 10 16.0934 0 0
3:15 pm 15:15 Sunny 81 27.3 52 11 36 36 S 25 41 29.5 999 10 16.0934 0 0
3:35 pm 15:35 Sunny 81 27.3 52 11.1 36 36 S 29 46 29.47 998 10 16.0934 0 0
3:55 pm 15:55 Sunny 82 27.8 54 12.2 38 38 S 28 44 29.47 998 10 16.0934 0 0
4:15 pm 16:15 Sunny 83 28.1 53 11.4 35 35 S 28 44 29.47 998 10 16.0934 0 0
4:35 pm 16:35 Sunny 82 28 53 11.8 37 37 S 25 41 29.47 998 10 16.0934 0 0
4:55 pm 16:55 Sunny 83 28.1 52 11.1 35 35 S 33 54 29.44 997 10 16.0934 0 0
5:15 pm 17:15 Sunny 83 28.1 54 12.1 37 37 S 26 43 29.44 997 10 16.0934 0 0
5:35 pm 17:35 Sunny 81 27.3 54 12.1 39 39 S 26 43 29.44 997 10 16.0934 0 0
5:55 pm 17:55 Sunny 82 27.5 54 12.3 39 39 S 31 50 29.44 997 10 16.0934 0 0
6:15 pm 18:15 Sunny 81 27.1 54 12 39 39 S 30 48 29.44 997 10 16.0934 0 0
6:35 pm 18:35 Sunny 80 26.5 55 12.6 42 42 S 30 48 29.44 997 10 16.0934 0 0
7:15 pm 19:15 Sunny 77 25.2 55 12.8 46 46 S 26 43 29.47 998 10 16.0934 0 0
7:35 pm 19:35 Sunny 77 25 56 13.1 48 48 S 26 43 29.47 998 10 16.0934 0 0
7:55 pm 19:55 Sunny 76 24.4 56 13.4 50 50 S 21 33 29.47 998 10 16.0934 0 0
8:15 pm 20:15 Sunny 75 23.7 56 13.2 52 52 S 23 37 29.47 998 10 16.0934 0 0
8:35 pm 20:35 Clear 74 23.1 56 13.5 55 55 S 22 35 29.47 998 10 16.0934 0 0
8:55 pm 20:55 Clear 73 23 56 13.5 55 55 S 26 43 29.47 998 10 16.0934 0 0
9:15 pm 21:15 Clear 73 22.5 56 13.5 57 57 S 22 35 29.5 999 10 16.0934 0 0
9:35 pm 21:35 Clear 72 22.2 56 13.5 58 58 S 21 33 29.53 1000 10 16.0934 0 0
9:55 pm 21:55 Clear 72 22 56 13.4 58 58 S 21 33 29.53 1000 10 16.0934 0 0
10:15 pm 22:15 Clear 71 21.6 56 13.3 59 59 S 22 35 29.53 1000 10 16.0934 0 0
10:35 pm 22:35 Clear 71 21.5 56 13.5 60 60 S 23 37 29.53 1000 10 16.0934 0 0
10:55 pm 22:55 Clear 71 21.4 56 13.6 61 61 S 21 33 29.53 1000 10 16.0934 0 0
11:15 pm 23:15 Clear 70 20.9 56 13.6 63 63 S 18 30 29.53 1000 10 16.0934 0 0
11:35 pm 23:35 Clear 69 20.8 57 14 65 65 S 23 37 29.53 1000 10 16.0934 0 0
11:55 pm 23:55 Clear 69 20.5 57 14.1 67 67 S 24 39 29.53 1000 10 16.0934 0 0

Powered by AerisWeather